Weather History for Chandler, OK

Change the Weather History Date:

Saturday, January 19, 2013

  Actual Average (KCUH) Record (KCUH)
Temperature  
Mean Temperature 54 °F -  
Max Temperature 68 °F 44 °F 75 °F (1951)
Min Temperature 41 °F 24 °F -3 °F (1984)
Degree Days  
Heating Degree Days 10    
Growing Degree Days 4 (Base 50)    
Moisture  
Dew Point 38 °F    
Average Humidity 58    
Maximum Humidity 81    
Minimum Humidity 37    
Precipitation  
Precipitation 0.00 in - - ()
Sea Level Pressure  
Sea Level Pressure 30.15 in    
Wind  
Wind Speed 10 mph (SW)    
Max Wind Speed 16 mph    
Max Gust Speed 20 mph    
Visibility 10 miles    
Events      
Averages and records for this station are not official NWS values.
T = Trace of Precipitation, MM = Missing Value Source: NWS Daily Summary

Daily Weather History Graph

Daily Weather History Graph

Search for Another Location

Airport:

Trip Planner

Search our weather history database for the weather conditions in past years. The results will help you decide how hot, cold, wet, or windy it might be!

Date:

Astronomy

Jan. 19, 2013 Rise Set
Actual Time 7:35 AM CST 5:41 PM CST
Civil Twilight 7:07 AM CST 6:09 PM CST
Nautical Twilight 6:36 AM CST 6:40 PM CST
Astronomical Twilight 6:05 AM CST 7:10 PM CST
Moon 12:06 PM CST (1/19) 1:13 AM CST (1/19)
Length of Visible Light 11h 01m
Length of Day
10h 06m
First Quarter, 57% of the Moon is Illuminated
Jan 19
First Quarter
Jan 26
Full
Feb 3
Last Quarter
Feb 10
New
Feb 17
First Quarter

Hourly Weather History & Observations

Time (CST) Temp. Windchill Dew Point Humidity Pressure Visibility Wind Dir Wind Speed Gust Speed Precip Events Conditions
12:15 AM 44.6 °F 39.7 °F 35.6 °F 71% 30.18 in 10.0 mi South 9.2 mph - N/A   Clear
12:35 AM 44.6 °F 39.2 °F 35.6 °F 71% 30.17 in 10.0 mi South 10.4 mph - N/A   Clear
12:55 AM 46.4 °F 40.7 °F 37.4 °F 71% 30.17 in 10.0 mi SSW 12.7 mph 18.4 mph N/A   Clear
1:15 AM 46.4 °F 40.4 °F 37.4 °F 71% 30.17 in 10.0 mi SSW 13.8 mph - N/A   Clear
1:35 AM 46.4 °F 40.7 °F 37.4 °F 71% 30.17 in 10.0 mi SSW 12.7 mph - N/A   Clear
1:55 AM 46.4 °F 40.7 °F 37.4 °F 71% 30.17 in 10.0 mi SSW 12.7 mph - N/A   Clear
2:15 AM 46.4 °F 41.1 °F 37.4 °F 71% 30.16 in 10.0 mi SSW 11.5 mph - N/A   Clear
2:35 AM 46.4 °F 39.8 °F 37.4 °F 71% 30.16 in 10.0 mi SSW 16.1 mph - N/A   Clear
2:55 AM 46.4 °F 40.4 °F 37.4 °F 71% 30.15 in 10.0 mi SSW 13.8 mph - N/A   Clear
3:15 AM 46.4 °F 40.4 °F 37.4 °F 71% 30.15 in 10.0 mi SSW 13.8 mph - N/A   Clear
3:35 AM 46.4 °F 40.1 °F 37.4 °F 71% 30.14 in 10.0 mi SSW 15.0 mph - N/A   Clear
3:55 AM 46.4 °F 40.4 °F 37.4 °F 71% 30.14 in 10.0 mi SSW 13.8 mph 19.6 mph N/A   Clear
4:15 AM 46.4 °F 40.1 °F 37.4 °F 71% 30.13 in 10.0 mi SSW 15.0 mph 19.6 mph N/A   Clear
4:35 AM 46.4 °F 40.7 °F 37.4 °F 71% 30.13 in 10.0 mi SSW 12.7 mph 18.4 mph N/A   Clear
4:55 AM 44.6 °F 38.1 °F 37.4 °F 76% 30.13 in 10.0 mi SSW 13.8 mph - N/A   Clear
5:15 AM 44.6 °F 38.4 °F 37.4 °F 76% 30.13 in 10.0 mi SSW 12.7 mph - N/A   Clear
5:35 AM 44.6 °F 38.4 °F 37.4 °F 76% 30.12 in 10.0 mi SSW 12.7 mph 17.3 mph N/A   Clear
6:35 AM 42.8 °F 38.0 °F 37.4 °F 81% 30.12 in 10.0 mi SSW 8.1 mph - N/A   Clear
6:55 AM 42.8 °F 37.5 °F 35.6 °F 76% 30.13 in 10.0 mi SSW 9.2 mph - N/A   Clear
7:15 AM 41.0 °F 35.8 °F 35.6 °F 81% 30.13 in 10.0 mi South 8.1 mph - N/A   Clear
7:55 AM 42.8 °F 38.6 °F 37.4 °F 81% 30.13 in 10.0 mi SSW 6.9 mph - N/A   Clear
8:15 AM 44.6 °F 39.7 °F 37.4 °F 76% 30.13 in 10.0 mi SSW 9.2 mph - N/A   Clear
8:35 AM 44.6 °F 38.8 °F 37.4 °F 76% 30.13 in 10.0 mi SSW 11.5 mph - N/A   Clear
9:35 AM 51.8 °F - 39.2 °F 62% 30.15 in 10.0 mi SSW 11.5 mph 18.4 mph N/A   Clear
9:55 AM 53.6 °F - 39.2 °F 58% 30.16 in 10.0 mi SSW 12.7 mph 18.4 mph N/A   Clear
10:15 AM 55.4 °F - 39.2 °F 54% 30.17 in 10.0 mi SSW 10.4 mph - N/A   Clear
10:35 AM 55.4 °F - 39.2 °F 54% 30.17 in 10.0 mi SW 16.1 mph - N/A   Clear
11:15 AM 59.0 °F - 39.2 °F 48% 30.17 in 10.0 mi SSW 10.4 mph - N/A   Clear
11:35 AM 60.8 °F - 39.2 °F 45% 30.16 in 10.0 mi WSW 10.4 mph 16.1 mph N/A   Clear
11:55 AM 60.8 °F - 39.2 °F 45% 30.14 in 10.0 mi SW 11.5 mph - N/A   Clear
12:15 PM 62.6 °F - 39.2 °F 42% 30.13 in 10.0 mi SSW 9.2 mph - N/A   Clear
12:35 PM 62.6 °F - 39.2 °F 42% 30.12 in 10.0 mi WSW 6.9 mph - N/A   Clear
12:55 PM 64.4 °F - 39.2 °F 40% 30.12 in 10.0 mi SW 5.8 mph - N/A   Clear
1:15 PM 64.4 °F - 39.2 °F 40% 30.12 in 10.0 mi WSW 6.9 mph - N/A   Clear
1:35 PM 64.4 °F - 41.0 °F 42% 30.11 in 10.0 mi WSW 4.6 mph - N/A   Clear
1:55 PM 64.4 °F - 41.0 °F 42% 30.10 in 10.0 mi SSW 4.6 mph - N/A   Clear
2:15 PM 66.2 °F - 41.0 °F 40% 30.09 in 10.0 mi West 6.9 mph - N/A   Clear
2:35 PM 66.2 °F - 41.0 °F 40% 30.09 in 10.0 mi South 6.9 mph - N/A   Clear
2:55 PM 66.2 °F - 41.0 °F 40% 30.08 in 10.0 mi SSW 10.4 mph - N/A   Clear
3:15 PM 68.0 °F - 41.0 °F 37% 30.10 in 10.0 mi WSW 6.9 mph - N/A   Clear
3:35 PM 68.0 °F - 41.0 °F 37% 30.10 in 10.0 mi SSW 6.9 mph - N/A   Clear
3:55 PM 68.0 °F - 41.0 °F 37% 30.10 in 10.0 mi SW 9.2 mph - N/A   Clear
4:15 PM 68.0 °F - 41.0 °F 37% 30.11 in 10.0 mi SW 5.8 mph - N/A   Clear
4:35 PM 66.2 °F - 41.0 °F 40% 30.11 in 10.0 mi WSW 5.8 mph - N/A   Clear
4:55 PM 64.4 °F - 39.2 °F 40% 30.11 in 10.0 mi WSW 8.1 mph - N/A   Clear
5:15 PM 62.6 °F - 39.2 °F 42% 30.12 in 10.0 mi SW 4.6 mph - N/A   Clear
5:35 PM 62.6 °F - 39.2 °F 42% 30.12 in 10.0 mi Calm Calm - N/A   Clear
5:55 PM 60.8 °F - 39.2 °F 45% 30.13 in 10.0 mi WNW 3.5 mph - N/A   Clear
6:15 PM 60.8 °F - 39.2 °F 45% 30.14 in 10.0 mi West 4.6 mph - N/A   Clear
6:35 PM 59.0 °F - 39.2 °F 48% 30.15 in 10.0 mi WNW 3.5 mph - N/A   Clear
6:55 PM 57.2 °F - 39.2 °F 51% 30.16 in 10.0 mi WNW 3.5 mph - N/A   Clear
7:15 PM 55.4 °F - 39.2 °F 54% 30.17 in 10.0 mi WNW 4.6 mph - N/A   Clear
7:35 PM 55.4 °F - 39.2 °F 54% 30.17 in 10.0 mi NW 6.9 mph - N/A   Clear
7:55 PM 57.2 °F - 37.4 °F 48% 30.18 in 10.0 mi NW 5.8 mph - N/A   Clear
8:15 PM 55.4 °F - 37.4 °F 51% 30.19 in 10.0 mi NW 3.5 mph - N/A   Clear
8:35 PM 55.4 °F - 37.4 °F 51% 30.19 in 10.0 mi WNW 3.5 mph - N/A   Clear
8:55 PM 51.8 °F - 37.4 °F 58% 30.19 in 10.0 mi NW 4.6 mph - N/A   Clear
9:15 PM 53.6 °F - 37.4 °F 54% 30.20 in 10.0 mi NNW 4.6 mph - N/A   Clear
9:35 PM 51.8 °F - 37.4 °F 58% 30.20 in 10.0 mi NNW 3.5 mph - N/A   Clear
9:55 PM 48.2 °F - 37.4 °F 66% 30.21 in 10.0 mi NNW 4.6 mph - N/A   Clear
10:15 PM 46.4 °F 44.3 °F 37.4 °F 71% 30.21 in 10.0 mi North 4.6 mph - N/A   Clear
10:35 PM 44.6 °F 41.4 °F 35.6 °F 71% 30.22 in 10.0 mi North 5.8 mph - N/A   Clear
10:55 PM 44.6 °F - 37.4 °F 76% 30.22 in 10.0 mi Calm Calm - N/A   Clear
11:15 PM 44.6 °F 42.2 °F 37.4 °F 76% 30.21 in 10.0 mi NNW 4.6 mph - N/A   Clear
11:35 PM 42.8 °F 38.6 °F 35.6 °F 76% 30.21 in 10.0 mi North 6.9 mph - N/A   Clear